Weather History for Eureka Airport, NV

Change the Weather History Date:

Wednesday, January 15, 2014

  Actual Average Record
Temperature  
Mean Temperature 32 °F -  
Max Temperature 46 °F - - ()
Min Temperature 19 °F - - ()
Degree Days  
Heating Degree Days 32    
Moisture  
Dew Point 18 °F    
Average Humidity 67    
Maximum Humidity 93    
Minimum Humidity 25    
Precipitation  
Precipitation 0.00 in - - ()
Sea Level Pressure  
Sea Level Pressure 30.58 in    
Wind  
Wind Speed 4 mph (SSW)    
Max Wind Speed 9 mph    
Max Gust Speed -    
Visibility 10 miles    
Events      
T = Trace of Precipitation, MM = Missing Value Source: NWS Daily Summary

Daily Weather History Graph

Daily Weather History Graph

Search for Another Location

Airport:

Trip Planner

Search our weather history database for the weather conditions in past years. The results will help you decide how hot, cold, wet, or windy it might be!

Date:

Astronomy

Jan. 15, 2014 Rise Set
Actual Time 7:02 AM PST 4:44 PM PST
Civil Twilight 6:33 AM PST 5:14 PM PST
Nautical Twilight 6:00 AM PST 5:47 PM PST
Astronomical Twilight 5:27 AM PST 6:19 PM PST
Moon 4:45 PM PST (1/15) 6:21 AM PST (1/15)
Length of Visible Light 10h 40m
Length of Day
9h 41m
Full, 100% of the Moon is Illuminated
Jan 15
Full
Jan 15
Full
Jan 23
Last Quarter
Jan 30
New
Feb 6
First Quarter

Hourly Weather History & Observations

Time (PST) Temp. Windchill Dew Point Humidity Pressure Visibility Wind Dir Wind Speed Gust Speed Precip Events Conditions
12:05 AM 23.0 °F - 17.6 °F 80% 30.63 in 10.0 mi Calm Calm - N/A   Clear
12:25 AM 23.0 °F 14.7 °F 19.4 °F 86% 30.63 in 10.0 mi SSW 6.9 mph - N/A   Clear
12:45 AM 24.8 °F 20.5 °F 19.4 °F 80% 30.62 in 10.0 mi South 3.5 mph - N/A   Clear
1:05 AM 24.8 °F 19.1 °F 19.4 °F 80% 30.62 in 10.0 mi SSW 4.6 mph - N/A   Clear
1:25 AM 23.0 °F 17.0 °F 17.6 °F 80% 30.62 in 10.0 mi SW 4.6 mph - N/A   Clear
1:45 AM 23.0 °F 13.1 °F 17.6 °F 80% 30.62 in 10.0 mi South 9.2 mph - N/A   Clear
2:05 AM 23.0 °F 15.8 °F 17.6 °F 80% 30.62 in 10.0 mi SSW 5.8 mph - N/A   Clear
2:25 AM 21.2 °F 13.6 °F 15.8 °F 80% 30.62 in 10.0 mi SSW 5.8 mph - N/A   Clear
2:45 AM 23.0 °F 14.7 °F 17.6 °F 80% 30.61 in 10.0 mi South 6.9 mph - N/A   Clear
3:05 AM 23.0 °F 13.9 °F 15.8 °F 74% 30.61 in 10.0 mi SSW 8.1 mph - N/A   Clear
3:25 AM 23.0 °F 13.9 °F 15.8 °F 74% 30.60 in 10.0 mi SSW 8.1 mph - N/A   Clear
3:45 AM 23.0 °F 13.9 °F 17.6 °F 80% 30.60 in 10.0 mi SSW 8.1 mph - N/A   Clear
4:05 AM 23.0 °F 17.0 °F 17.6 °F 80% 30.60 in 10.0 mi SSW 4.6 mph - N/A   Clear
4:25 AM 21.2 °F - 17.6 °F 86% 30.60 in 10.0 mi Calm Calm - N/A   Clear
4:45 AM 19.4 °F 11.5 °F 17.6 °F 93% 30.61 in 10.0 mi SW 5.8 mph - N/A   Clear
5:05 AM 21.2 °F 12.6 °F 17.6 °F 86% 30.61 in 10.0 mi SW 6.9 mph - N/A   Clear
5:25 AM 19.4 °F 12.8 °F 17.6 °F 93% 30.61 in 10.0 mi SSW 4.6 mph - N/A   Clear
5:45 AM 19.4 °F 10.4 °F 17.6 °F 93% 30.61 in 10.0 mi SW 6.9 mph - N/A   Clear
6:05 AM 19.4 °F 12.8 °F 15.8 °F 86% 30.61 in 10.0 mi SSW 4.6 mph - N/A   Clear
6:25 AM 19.4 °F 11.5 °F 15.8 °F 86% 30.61 in 10.0 mi SSW 5.8 mph - N/A   Clear
6:45 AM 19.4 °F 11.5 °F 15.8 °F 86% 30.61 in 10.0 mi SW 5.8 mph - N/A   Clear
7:05 AM 19.4 °F 10.4 °F 14.0 °F 80% 30.61 in 10.0 mi SSW 6.9 mph - N/A   Clear
7:25 AM 19.4 °F 10.4 °F 15.8 °F 86% 30.61 in 10.0 mi SSW 6.9 mph - N/A   Clear
7:45 AM 19.4 °F 14.3 °F 15.8 °F 86% 30.61 in 10.0 mi South 3.5 mph - N/A   Clear
8:05 AM 23.0 °F 17.0 °F 17.6 °F 80% 30.61 in 10.0 mi South 4.6 mph - N/A   Clear
8:25 AM 26.6 °F 18.2 °F 17.6 °F 69% 30.61 in 10.0 mi SW 8.1 mph - N/A   Clear
8:45 AM 28.4 °F 22.2 °F 19.4 °F 69% 30.61 in 10.0 mi SW 5.8 mph - N/A   Clear
9:05 AM 30.2 °F - 23.0 °F 75% 30.62 in 10.0 mi Calm Calm - N/A   Clear
9:25 AM 32.0 °F - 23.0 °F 69% 30.62 in 10.0 mi Calm Calm - N/A   Clear
9:45 AM 32.0 °F - 23.0 °F 69% 30.63 in 10.0 mi Calm Calm - N/A   Clear
10:05 AM 35.6 °F 32.8 °F 23.0 °F 60% 30.63 in 10.0 mi West 3.5 mph - N/A   Clear
10:25 AM 37.4 °F - 19.4 °F 48% 30.63 in 10.0 mi Calm Calm - N/A   Clear
10:45 AM 37.4 °F 34.9 °F 23.0 °F 56% 30.63 in 10.0 mi North 3.5 mph - N/A   Clear
11:05 AM 37.4 °F 34.9 °F 24.8 °F 60% 30.62 in 10.0 mi NE 3.5 mph - N/A   Clear
11:25 AM 37.4 °F - 17.6 °F 45% 30.61 in 10.0 mi Calm Calm - N/A   Clear
11:45 AM 39.2 °F - 19.4 °F 45% 30.60 in 10.0 mi Calm Calm - N/A   Clear
12:05 PM 41.0 °F - 17.6 °F 39% 30.59 in 10.0 mi Calm Calm - N/A   Clear
12:25 PM 42.8 °F - 17.6 °F 36% 30.58 in 10.0 mi Calm Calm - N/A   Clear
12:45 PM 42.8 °F - 17.6 °F 36% 30.57 in 10.0 mi Calm Calm - N/A   Clear
1:05 PM 42.8 °F - 17.6 °F 36% 30.56 in 10.0 mi Calm Calm - N/A   Clear
1:25 PM 44.6 °F - 15.8 °F 31% 30.56 in 10.0 mi Calm Calm - N/A   Clear
1:45 PM 46.4 °F - 17.6 °F 32% 30.55 in 10.0 mi Calm Calm - N/A   Clear
2:05 PM 46.4 °F - 12.2 °F 25% 30.53 in 10.0 mi Calm Calm - N/A   Clear
2:25 PM 46.4 °F - 12.2 °F 25% 30.53 in 10.0 mi Calm Calm - N/A   Clear
2:45 PM 46.4 °F - 14.0 °F 27% 30.53 in 10.0 mi Calm Calm - N/A   Clear
3:05 PM 46.4 °F - 14.0 °F 27% 30.53 in 10.0 mi Calm Calm - N/A   Clear
3:25 PM 46.4 °F - 14.0 °F 27% 30.53 in 10.0 mi Calm Calm - N/A   Clear
3:45 PM 46.4 °F - 14.0 °F 27% 30.53 in 10.0 mi Calm Calm - N/A   Clear
4:05 PM 46.4 °F - 17.6 °F 32% 30.53 in 10.0 mi Calm Calm - N/A   Clear
4:25 PM 44.6 °F - 19.4 °F 37% 30.53 in 10.0 mi Calm Calm - N/A   Clear
4:45 PM 41.0 °F 39.0 °F 21.2 °F 45% 30.53 in 10.0 mi SSW 3.5 mph - N/A   Clear
5:05 PM 35.6 °F - 19.4 °F 52% 30.53 in 10.0 mi Calm Calm - N/A   Clear
5:25 PM 32.0 °F 24.8 °F 23.0 °F 69% 30.52 in 10.0 mi SSW 8.1 mph - N/A   Clear
5:45 PM 30.2 °F 25.4 °F 21.2 °F 69% 30.53 in 10.0 mi South 4.6 mph - N/A   Clear
6:05 PM 28.4 °F 23.3 °F 23.0 °F 80% 30.53 in 10.0 mi SSE 4.6 mph - N/A   Clear
6:25 PM 28.4 °F 24.6 °F 23.0 °F 80% 30.53 in 10.0 mi SE 3.5 mph - N/A   Clear
6:45 PM 28.4 °F 24.6 °F 23.0 °F 80% 30.53 in 10.0 mi SSE 3.5 mph - N/A   Clear
7:05 PM 26.6 °F 21.2 °F 23.0 °F 86% 30.53 in 10.0 mi SSW 4.6 mph - N/A   Clear
7:25 PM 26.6 °F 21.2 °F 21.2 °F 80% 30.53 in 10.0 mi SSE 4.6 mph - N/A   Clear
7:45 PM 28.4 °F 24.6 °F 19.4 °F 69% 30.53 in 10.0 mi SSW 3.5 mph - N/A   Clear
8:05 PM 26.6 °F 21.2 °F 21.2 °F 80% 30.53 in 10.0 mi SSW 4.6 mph - N/A   Clear
8:25 PM 26.6 °F 19.1 °F 19.4 °F 74% 30.52 in 10.0 mi South 6.9 mph - N/A   Clear
8:45 PM 26.6 °F 21.2 °F 21.2 °F 80% 30.53 in 10.0 mi South 4.6 mph - N/A   Clear
9:05 PM 24.8 °F 20.5 °F 21.2 °F 86% 30.53 in 10.0 mi SSW 3.5 mph - N/A   Clear
9:25 PM 24.8 °F 19.1 °F 19.4 °F 80% 30.53 in 10.0 mi SW 4.6 mph - N/A   Clear
9:45 PM 24.8 °F 20.5 °F 19.4 °F 80% 30.53 in 10.0 mi SSW 3.5 mph - N/A   Clear
10:05 PM 23.0 °F 15.8 °F 19.4 °F 86% 30.53 in 10.0 mi South 5.8 mph - N/A   Clear
10:25 PM 23.0 °F 17.0 °F 19.4 °F 86% 30.53 in 10.0 mi South 4.6 mph - N/A   Clear
10:45 PM 23.0 °F 15.8 °F 17.6 °F 80% 30.53 in 10.0 mi SSW 5.8 mph - N/A   Clear
11:05 PM 23.0 °F 18.4 °F 17.6 °F 80% 30.54 in 10.0 mi South 3.5 mph - N/A   Clear
11:25 PM 23.0 °F 18.4 °F 17.6 °F 80% 30.54 in 10.0 mi SSW 3.5 mph - N/A   Clear
11:45 PM 23.0 °F 15.8 °F 17.6 °F 80% 30.54 in 10.0 mi South 5.8 mph - N/A   Clear